Time,TemperatureF,DewpointF,PressureIn,WindDirection,WindDirectionDegrees,WindSpeedMPH,WindSpeedGustMPH,Humidity,HourlyPrecipIn,Conditions,Clouds,dailyrainin,SoftwareType,DateUTC
2013-01-02 00:00:00,28.0,15.5,30.05,WNW,285,4.0,13.0,59,0.00,,CLR,0.01,VWS V14.01,2013-01-02 05:00:00,
2013-01-02 00:01:00,28.0,15.9,30.05,NNW,336,0.0,5.0,60,0.00,,CLR,0.00,VWS V14.01,2013-01-02 05:01:00,
2013-01-02 00:03:00,28.0,15.9,30.05,NNW,336,0.0,5.0,60,0.00,,CLR,0.00,VWS V14.01,2013-01-02 05:03:00,
2013-01-02 00:08:00,27.9,15.8,30.05,WNW,301,0.0,5.0,60,0.00,,CLR,0.00,VWS V14.01,2013-01-02 05:08:00,
2013-01-02 00:13:00,27.9,15.8,30.04,NNW,342,1.0,5.0,60,0.00,,CLR,0.00,VWS V14.01,2013-01-02 05:13:00,
2013-01-02 00:18:00,27.8,16.1,30.04,NW,315,1.0,5.0,61,0.00,,CLR,0.00,VWS V14.01,2013-01-02 05:18:00,
2013-01-02 00:23:00,27.7,16.4,30.04,NW,323,2.0,5.0,62,0.00,,CLR,0.00,VWS V14.01,2013-01-02 05:23:00,
2013-01-02 00:28:00,27.6,15.9,30.04,NW,306,1.0,6.0,61,0.00,,CLR,0.00,VWS V14.01,2013-01-02 05:28:00,
2013-01-02 00:33:00,27.5,16.2,30.03,WNW,301,4.0,7.0,62,0.00,,CLR,0.00,VWS V14.01,2013-01-02 05:33:00,
2013-01-02 00:38:00,27.4,15.7,30.03,NNW,338,0.0,7.0,61,0.00,,CLR,0.00,VWS V14.01,2013-01-02 05:38:00,
2013-01-02 00:43:00,27.3,16.0,30.03,North,350,0.0,7.0,62,0.00,,CLR,0.00,VWS V14.01,2013-01-02 05:43:00,
2013-01-02 00:48:00,27.3,16.0,30.04,NNW,327,2.0,7.0,62,0.00,,CLR,0.00,VWS V14.01,2013-01-02 05:48:00,
2013-01-02 00:54:00,27.2,15.6,30.03,WNW,296,3.0,9.0,61,0.00,,CLR,0.00,VWS V14.01,2013-01-02 05:54:00,
2013-01-02 00:59:00,27.2,15.6,30.04,NW,313,5.0,9.0,61,0.00,,CLR,0.00,VWS V14.01,2013-01-02 05:59:00,
2013-01-02 01:04:00,27.2,15.2,30.02,North,349,3.0,13.0,60,0.00,,CLR,0.00,VWS V14.01,2013-01-02 06:04:00,
2013-01-02 01:09:00,27.2,15.2,30.02,NW,323,2.0,13.0,60,0.00,,CLR,0.00,VWS V14.01,2013-01-02 06:09:00,
2013-01-02 01:14:00,27.2,15.6,30.02,WNW,282,7.0,13.0,61,0.00,,CLR,0.00,VWS V14.01,2013-01-02 06:14:00,
2013-01-02 01:19:00,27.1,15.1,30.03,NNW,335,5.0,13.0,60,0.00,,CLR,0.00,VWS V14.01,2013-01-02 06:19:00,
2013-01-02 01:24:00,27.1,15.4,30.02,NNE,29,6.0,14.0,61,0.00,,CLR,0.00,VWS V14.01,2013-01-02 06:24:00,
2013-01-02 01:29:00,27.1,15.1,30.02,NW,319,2.0,14.0,60,0.00,,CLR,0.00,VWS V14.01,2013-01-02 06:29:00,
2013-01-02 01:34:00,27.0,15.4,30.02,NNW,348,3.0,13.0,61,0.00,,CLR,0.00,VWS V14.01,2013-01-02 06:34:00,
2013-01-02 01:39:00,27.0,15.4,30.02,North,350,4.0,13.0,61,0.00,,CLR,0.00,VWS V14.01,2013-01-02 06:39:00,
2013-01-02 01:44:00,26.9,15.3,30.02,WNW,301,5.0,13.0,61,0.00,,CLR,0.00,VWS V14.01,2013-01-02 06:44:00,
2013-01-02 01:49:00,26.8,15.2,30.03,NW,324,3.0,13.0,61,0.00,,CLR,0.00,VWS V14.01,2013-01-02 06:49:00,
2013-01-02 01:54:00,26.8,15.5,30.03,NNW,333,4.0,13.0,62,0.00,,CLR,0.00,VWS V14.01,2013-01-02 06:54:00,
2013-01-02 01:59:00,26.7,15.4,30.03,NNW,331,6.0,13.0,62,0.00,,CLR,0.00,VWS V14.01,2013-01-02 06:59:00,
2013-01-02 02:04:00,26.7,15.4,30.02,NW,312,6.0,7.0,62,0.00,,CLR,0.00,VWS V14.01,2013-01-02 07:04:00,
2013-01-02 02:09:00,26.6,15.7,30.02,NNW,345,5.0,8.0,63,0.00,,CLR,0.00,VWS V14.01,2013-01-02 07:09:00,
2013-01-02 02:14:00,26.5,16.0,30.03,NW,321,1.0,8.0,64,0.00,,CLR,0.00,VWS V14.01,2013-01-02 07:14:00,
2013-01-02 02:19:00,26.5,16.0,30.03,NNW,333,6.0,8.0,64,0.00,,CLR,0.00,VWS V14.01,2013-01-02 07:19:00,
2013-01-02 02:24:00,26.4,15.5,30.04,WNW,296,8.0,8.0,63,0.00,,CLR,0.00,VWS V14.01,2013-01-02 07:24:00,
2013-01-02 02:29:00,26.4,15.5,30.04,NW,318,7.0,10.0,63,0.00,,CLR,0.00,VWS V14.01,2013-01-02 07:29:00,
2013-01-02 02:34:00,26.3,15.4,30.05,NW,306,5.0,9.0,63,0.00,,CLR,0.00,VWS V14.01,2013-01-02 07:34:00,
2013-01-02 02:39:00,26.3,15.1,30.05,NW,324,9.0,12.0,62,0.00,,CLR,0.00,VWS V14.01,2013-01-02 07:39:00,
2013-01-02 02:44:00,26.2,14.6,30.05,NW,319,7.0,12.0,61,0.00,,CLR,0.00,VWS V14.01,2013-01-02 07:44:00,
2013-01-02 02:49:00,26.1,14.9,30.05,NW,311,2.0,12.0,62,0.00,,CLR,0.00,VWS V14.01,2013-01-02 07:49:00,
2013-01-02 02:54:00,26.0,14.8,30.05,NW,311,10.0,13.0,62,0.00,,CLR,0.00,VWS V14.01,2013-01-02 07:54:00,
2013-01-02 02:59:00,26.0,14.8,30.05,NNW,333,11.0,13.0,62,0.00,,CLR,0.00,VWS V14.01,2013-01-02 07:59:00,
2013-01-02 03:04:00,25.9,14.7,30.05,NW,309,3.0,14.0,62,0.00,,CLR,0.00,VWS V14.01,2013-01-02 08:04:00,
2013-01-02 03:09:00,25.8,14.6,30.04,WNW,298,4.0,14.0,62,0.00,,CLR,0.00,VWS V14.01,2013-01-02 08:09:00,
2013-01-02 03:14:00,25.8,14.6,30.05,NW,304,7.0,14.0,62,0.00,,CLR,0.00,VWS V14.01,2013-01-02 08:14:00,
2013-01-02 03:19:00,25.7,14.9,30.05,NW,321,2.0,14.0,63,0.00,,CLR,0.00,VWS V14.01,2013-01-02 08:19:00,
2013-01-02 03:24:00,25.6,15.1,30.04,North,5,6.0,14.0,64,0.00,,CLR,0.00,VWS V14.01,2013-01-02 08:24:00,
2013-01-02 03:29:00,25.5,14.7,30.04,NW,311,2.0,14.0,63,0.00,,CLR,0.00,VWS V14.01,2013-01-02 08:29:00,
2013-01-02 03:34:00,25.5,14.7,30.04,NW,312,3.0,8.0,63,0.00,,CLR,0.00,VWS V14.01,2013-01-02 08:34:00,
2013-01-02 03:39:00,25.4,14.6,30.04,NW,313,1.0,8.0,63,0.00,,CLR,0.00,VWS V14.01,2013-01-02 08:39:00,
2013-01-02 03:44:00,25.4,14.9,30.04,NNW,329,4.0,8.0,64,0.00,,CLR,0.00,VWS V14.01,2013-01-02 08:44:00,
2013-01-02 03:49:00,25.3,14.8,30.05,NW,320,1.0,8.0,64,0.00,,CLR,0.00,VWS V14.01,2013-01-02 08:49:00,
2013-01-02 03:54:00,25.3,14.8,30.05,NNW,333,3.0,8.0,64,0.00,,CLR,0.00,VWS V14.01,2013-01-02 08:54:00,
2013-01-02 03:59:00,25.2,14.8,30.04,West,272,3.0,8.0,64,0.00,,CLR,0.00,VWS V14.01,2013-01-02 08:59:00,
2013-01-02 04:04:00,25.2,14.8,30.04,NW,309,3.0,6.0,64,0.00,,CLR,0.00,VWS V14.01,2013-01-02 09:04:00,
2013-01-02 04:09:00,25.1,14.6,30.04,NNW,344,4.0,10.0,64,0.00,,CLR,0.00,VWS V14.01,2013-01-02 09:09:00,
2013-01-02 04:15:00,25.1,14.6,30.04,NW,323,3.0,10.0,64,0.00,,CLR,0.00,VWS V14.01,2013-01-02 09:15:00,
2013-01-02 04:20:00,25.1,14.6,30.04,NW,319,3.0,10.0,64,0.00,,CLR,0.00,VWS V14.01,2013-01-02 09:20:00,
2013-01-02 04:25:00,25.0,14.6,30.04,NW,319,4.0,10.0,64,0.00,,CLR,0.00,VWS V14.01,2013-01-02 09:25:00,
2013-01-02 04:30:00,24.9,14.5,30.04,NW,325,2.0,2.0,64,0.00,,CLR,0.00,VWS V14.01,2013-01-02 09:30:00,
2013-01-02 04:35:00,24.9,14.5,30.04,NW,321,2.0,5.0,64,0.00,,CLR,0.00,VWS V14.01,2013-01-02 09:35:00,
2013-01-02 04:40:00,24.8,14.7,30.04,NW,319,1.0,5.0,65,0.00,,CLR,0.00,VWS V14.01,2013-01-02 09:40:00,
2013-01-02 04:45:00,24.8,14.7,30.04,NNW,338,2.0,5.0,65,0.00,,CLR,0.00,VWS V14.01,2013-01-02 09:45:00,
2013-01-02 04:50:00,24.7,14.6,30.04,NNW,346,1.0,5.0,65,0.00,,CLR,0.00,VWS V14.01,2013-01-02 09:50:00,
2013-01-02 04:55:00,24.7,15.0,30.04,WNW,286,3.0,5.0,66,0.00,,CLR,0.00,VWS V14.01,2013-01-02 09:55:00,
2013-01-02 05:00:00,24.7,14.6,30.05,West,274,2.0,2.0,65,0.00,,CLR,0.00,VWS V14.01,2013-01-02 10:00:00,
2013-01-02 05:05:00,24.6,14.5,30.05,NW,321,0.0,4.0,65,0.00,,CLR,0.00,VWS V14.01,2013-01-02 10:05:00,
2013-01-02 05:10:00,24.6,14.5,30.05,NNW,333,3.0,4.0,65,0.00,,CLR,0.00,VWS V14.01,2013-01-02 10:10:00,
2013-01-02 05:15:00,24.5,14.4,30.05,NNW,348,2.0,5.0,65,0.00,,CLR,0.00,VWS V14.01,2013-01-02 10:15:00,
2013-01-02 05:20:00,24.5,14.4,30.05,North,355,1.0,5.0,65,0.00,,CLR,0.00,VWS V14.01,2013-01-02 10:20:00,
2013-01-02 05:25:00,24.4,14.3,30.05,NW,304,1.0,5.0,65,0.00,,CLR,0.00,VWS V14.01,2013-01-02 10:25:00,
2013-01-02 05:30:00,24.4,14.3,30.05,NW,311,1.0,2.0,65,0.00,,CLR,0.00,VWS V14.01,2013-01-02 10:30:00,
2013-01-02 05:35:00,24.3,14.2,30.05,NW,313,0.0,3.0,65,0.00,,CLR,0.00,VWS V14.01,2013-01-02 10:35:00,
2013-01-02 05:40:00,24.3,14.2,30.05,NW,313,0.0,3.0,65,0.00,,CLR,0.00,VWS V14.01,2013-01-02 10:40:00,
2013-01-02 05:45:00,24.3,14.2,30.05,NW,313,0.0,3.0,65,0.00,,CLR,0.00,VWS V14.01,2013-01-02 10:45:00,
2013-01-02 05:50:00,24.2,14.5,30.06,NW,313,0.0,3.0,66,0.00,,CLR,0.00,VWS V14.01,2013-01-02 10:50:00,
2013-01-02 05:55:00,24.2,14.5,30.06,NW,313,1.0,3.0,66,0.00,,CLR,0.00,VWS V14.01,2013-01-02 10:55:00,
2013-01-02 06:00:00,24.1,14.4,30.06,NW,313,2.0,2.0,66,0.00,,CLR,0.00,VWS V14.01,2013-01-02 11:00:00,
2013-01-02 06:05:00,24.1,14.4,30.06,NW,312,2.0,4.0,66,0.00,,CLR,0.00,VWS V14.01,2013-01-02 11:05:00,
2013-01-02 06:10:00,24.1,14.4,30.06,NW,314,2.0,4.0,66,0.00,,CLR,0.00,VWS V14.01,2013-01-02 11:10:00,
2013-01-02 06:15:00,24.0,14.3,30.05,NNW,333,1.0,4.0,66,0.00,,CLR,0.00,VWS V14.01,2013-01-02 11:15:00,
2013-01-02 06:20:00,24.0,14.3,30.06,NW,313,2.0,4.0,66,0.00,,CLR,0.00,VWS V14.01,2013-01-02 11:20:00,
2013-01-02 06:25:00,24.0,14.3,30.06,NW,306,3.0,4.0,66,0.00,,CLR,0.00,VWS V14.01,2013-01-02 11:25:00,
2013-01-02 06:30:00,24.0,14.3,30.06,NNW,345,0.0,1.0,66,0.00,,CLR,0.00,VWS V14.01,2013-01-02 11:30:00,
2013-01-02 06:35:00,24.0,14.3,30.05,NNW,345,0.0,2.0,66,0.00,,CLR,0.00,VWS V14.01,2013-01-02 11:35:00,
2013-01-02 06:40:00,23.9,14.2,30.05,NNW,345,0.0,2.0,66,0.00,,CLR,0.00,VWS V14.01,2013-01-02 11:40:00,
2013-01-02 06:45:00,23.9,14.6,30.05,NNW,345,0.0,2.0,67,0.00,,CLR,0.00,VWS V14.01,2013-01-02 11:45:00,
2013-01-02 06:50:00,23.9,14.6,30.06,NNW,345,0.0,2.0,67,0.00,,CLR,0.00,VWS V14.01,2013-01-02 11:50:00,
2013-01-02 06:55:00,23.8,14.8,30.06,NNW,345,0.0,2.0,68,0.00,,CLR,0.00,VWS V14.01,2013-01-02 11:55:00,
2013-01-02 07:00:00,23.8,14.8,30.06,NNW,345,0.0,0.0,68,0.00,,CLR,0.00,VWS V14.01,2013-01-02 12:00:00,
2013-01-02 07:05:00,23.7,14.7,30.06,NNW,345,0.0,0.0,68,0.00,,CLR,0.00,VWS V14.01,2013-01-02 12:05:00,
2013-01-02 07:10:00,23.7,15.0,30.06,NNW,345,0.0,2.0,69,0.00,,CLR,0.00,VWS V14.01,2013-01-02 12:10:00,
2013-01-02 07:15:00,23.6,14.9,30.06,NNW,344,0.0,2.0,69,0.00,,CLR,0.00,VWS V14.01,2013-01-02 12:15:00,
2013-01-02 07:21:00,23.5,14.8,30.06,NNW,344,2.0,2.0,69,0.00,,CLR,0.00,VWS V14.01,2013-01-02 12:21:00,
2013-01-02 07:26:00,23.5,14.8,30.07,NW,306,0.0,2.0,69,0.00,,CLR,0.00,VWS V14.01,2013-01-02 12:26:00,
2013-01-02 07:31:00,23.5,14.5,30.07,NW,306,0.0,0.0,68,0.00,,CLR,0.00,VWS V14.01,2013-01-02 12:31:00,
2013-01-02 07:36:00,23.6,14.6,30.07,NW,306,0.0,1.0,68,0.00,,CLR,0.00,VWS V14.01,2013-01-02 12:36:00,
2013-01-02 07:41:00,23.7,14.7,30.07,NW,306,0.0,1.0,68,0.00,,CLR,0.00,VWS V14.01,2013-01-02 12:41:00,
2013-01-02 07:46:00,23.8,14.8,30.08,NW,306,0.0,2.0,68,0.00,,CLR,0.00,VWS V14.01,2013-01-02 12:46:00,
2013-01-02 07:51:00,23.9,14.6,30.08,WNW,294,1.0,2.0,67,0.00,,CLR,0.00,VWS V14.01,2013-01-02 12:51:00,
2013-01-02 07:56:00,24.0,14.6,30.08,NW,308,0.0,4.0,67,0.00,,CLR,0.00,VWS V14.01,2013-01-02 12:56:00,
2013-01-02 08:01:00,24.0,15.0,30.08,WNW,301,1.0,2.0,68,0.00,,CLR,0.00,VWS V14.01,2013-01-02 13:01:00,
2013-01-02 08:06:00,24.1,14.7,30.09,WNW,301,0.0,3.0,67,0.00,,CLR,0.00,VWS V14.01,2013-01-02 13:06:00,
2013-01-02 08:11:00,24.2,14.8,30.09,NW,304,2.0,3.0,67,0.00,,CLR,0.00,VWS V14.01,2013-01-02 13:11:00,
2013-01-02 08:16:00,24.3,14.9,30.09,WNW,301,1.0,3.0,67,0.00,,CLR,0.00,VWS V14.01,2013-01-02 13:16:00,
2013-01-02 08:21:00,24.4,14.7,30.09,WNW,291,1.0,3.0,66,0.00,,CLR,0.00,VWS V14.01,2013-01-02 13:21:00,
2013-01-02 08:26:00,24.5,14.8,30.09,NW,325,0.0,3.0,66,0.00,,CLR,0.00,VWS V14.01,2013-01-02 13:26:00,
2013-01-02 08:31:00,24.6,14.9,30.09,West,281,1.0,2.0,66,0.00,,CLR,0.00,VWS V14.01,2013-01-02 13:31:00,
2013-01-02 08:36:00,24.6,14.5,30.10,SW,225,2.0,3.0,65,0.00,,CLR,0.00,VWS V14.01,2013-01-02 13:36:00,
2013-01-02 08:41:00,24.8,15.1,30.09,WNW,298,3.0,3.0,66,0.00,,CLR,0.00,VWS V14.01,2013-01-02 13:41:00,
2013-01-02 08:46:00,25.1,15.4,30.10,NW,322,0.0,3.0,66,0.00,,CLR,0.00,VWS V14.01,2013-01-02 13:46:00,
2013-01-02 08:51:00,25.4,15.3,30.10,West,263,2.0,3.0,65,0.00,,CLR,0.00,VWS V14.01,2013-01-02 13:51:00,
2013-01-02 08:56:00,25.7,15.2,30.10,WNW,300,0.0,5.0,64,0.00,,CLR,0.00,VWS V14.01,2013-01-02 13:56:00,
2013-01-02 09:01:00,25.9,15.4,30.10,SW,235,2.0,3.0,64,0.00,,CLR,0.00,VWS V14.01,2013-01-02 14:01:00,
2013-01-02 09:06:00,26.2,15.3,30.10,West,278,2.0,4.0,63,0.00,,CLR,0.00,VWS V14.01,2013-01-02 14:06:00,
2013-01-02 09:11:00,26.3,15.1,30.10,WNW,292,2.0,5.0,62,0.00,,CLR,0.00,VWS V14.01,2013-01-02 14:11:00,
2013-01-02 09:16:00,26.3,15.4,30.11,WNW,302,5.0,5.0,63,0.00,,CLR,0.00,VWS V14.01,2013-01-02 14:16:00,
2013-01-02 09:21:00,26.5,16.0,30.11,WNW,290,0.0,6.0,64,0.00,,CLR,0.00,VWS V14.01,2013-01-02 14:21:00,
2013-01-02 09:26:00,26.8,16.3,30.11,NNW,328,2.0,6.0,64,0.00,,CLR,0.00,VWS V14.01,2013-01-02 14:26:00,
2013-01-02 09:31:00,27.1,16.2,30.11,WNW,298,0.0,4.0,63,0.00,,CLR,0.00,VWS V14.01,2013-01-02 14:31:00,
2013-01-02 09:36:00,27.4,16.5,30.11,WSW,253,2.0,4.0,63,0.00,,CLR,0.00,VWS V14.01,2013-01-02 14:36:00,
2013-01-02 09:41:00,27.6,15.9,30.11,WSW,244,2.0,5.0,61,0.00,,CLR,0.00,VWS V14.01,2013-01-02 14:41:00,
2013-01-02 09:46:00,27.5,16.6,30.11,WNW,296,2.0,5.0,63,0.00,,CLR,0.00,VWS V14.01,2013-01-02 14:46:00,
2013-01-02 09:51:00,27.9,16.6,30.11,West,280,3.0,6.0,62,0.00,,CLR,0.00,VWS V14.01,2013-01-02 14:51:00,
2013-01-02 09:56:00,28.2,16.5,30.11,SW,223,2.0,6.0,61,0.00,,CLR,0.00,VWS V14.01,2013-01-02 14:56:00,
2013-01-02 10:02:00,28.3,15.8,30.12,West,259,3.0,7.0,59,0.00,,FEW043,0.00,VWS V14.01,2013-01-02 15:02:00,
2013-01-02 10:07:00,28.7,16.2,30.12,WNW,296,5.0,7.0,59,0.00,,FEW043,0.00,VWS V14.01,2013-01-02 15:07:00,
2013-01-02 10:12:00,29.1,16.6,30.12,NW,321,2.0,8.0,59,0.00,,FEW043,0.00,VWS V14.01,2013-01-02 15:12:00,
2013-01-02 10:17:00,29.5,16.2,30.12,WNW,302,4.0,8.0,57,0.00,,FEW043,0.00,VWS V14.01,2013-01-02 15:17:00,
2013-01-02 10:22:00,29.8,16.4,30.12,NNW,338,4.0,11.0,57,0.00,,FEW043,0.00,VWS V14.01,2013-01-02 15:22:00,
2013-01-02 10:27:00,30.1,16.7,30.12,West,280,3.0,11.0,57,0.00,,FEW043,0.00,VWS V14.01,2013-01-02 15:27:00,
2013-01-02 10:32:00,30.6,16.8,30.11,NW,317,6.0,8.0,56,0.00,,FEW043,0.00,VWS V14.01,2013-01-02 15:32:00,
2013-01-02 10:37:00,31.1,17.2,30.11,NW,325,2.0,8.0,56,0.00,,FEW043,0.00,VWS V14.01,2013-01-02 15:37:00,
2013-01-02 10:42:00,31.7,17.4,30.11,WNW,294,1.0,10.0,55,0.00,,FEW043,0.00,VWS V14.01,2013-01-02 15:42:00,
2013-01-02 10:47:00,31.9,17.2,30.11,West,278,2.0,10.0,54,0.00,,FEW043,0.00,VWS V14.01,2013-01-02 15:47:00,
2013-01-02 10:52:00,30.9,16.2,30.11,WNW,289,7.0,10.0,54,0.00,,FEW043,0.00,VWS V14.01,2013-01-02 15:52:00,
2013-01-02 10:57:00,30.8,17.0,30.11,WNW,292,4.0,10.0,56,0.00,,FEW043,0.00,VWS V14.01,2013-01-02 15:57:00,
2013-01-02 11:02:00,31.4,17.5,30.10,West,275,4.0,7.0,56,0.00,,CLR,0.00,VWS V14.01,2013-01-02 16:02:00,
2013-01-02 11:07:00,31.8,17.1,30.10,SW,226,1.0,7.0,54,0.00,,CLR,0.00,VWS V14.01,2013-01-02 16:07:00,
2013-01-02 11:12:00,32.3,18.0,30.10,West,281,5.0,8.0,55,0.00,,CLR,0.00,VWS V14.01,2013-01-02 16:12:00,
2013-01-02 11:17:00,32.3,17.1,30.10,WNW,287,4.0,12.0,53,0.00,,CLR,0.00,VWS V14.01,2013-01-02 16:17:00,
2013-01-02 11:22:00,32.5,17.3,30.10,NNW,344,3.0,12.0,53,0.00,,CLR,0.00,VWS V14.01,2013-01-02 16:22:00,
2013-01-02 11:27:00,32.9,17.7,30.09,NNW,327,4.0,12.0,53,0.00,,CLR,0.00,VWS V14.01,2013-01-02 16:27:00,
2013-01-02 11:32:00,32.7,17.5,30.09,WNW,298,3.0,7.0,53,0.00,,CLR,0.00,VWS V14.01,2013-01-02 16:32:00,
2013-01-02 11:37:00,32.2,17.4,30.09,NW,316,5.0,9.0,54,0.00,,CLR,0.00,VWS V14.01,2013-01-02 16:37:00,
2013-01-02 11:42:00,32.5,18.1,30.09,NW,315,4.0,9.0,55,0.00,,CLR,0.00,VWS V14.01,2013-01-02 16:42:00,
2013-01-02 11:47:00,33.0,18.2,30.08,WNW,288,2.0,9.0,54,0.00,,CLR,0.00,VWS V14.01,2013-01-02 16:47:00,
2013-01-02 11:52:00,33.4,18.1,30.08,WNW,289,3.0,10.0,53,0.00,,CLR,0.00,VWS V14.01,2013-01-02 16:52:00,
2013-01-02 11:57:00,33.8,17.6,30.08,North,360,7.0,11.0,51,0.00,,CLR,0.00,VWS V14.01,2013-01-02 16:57:00,
2013-01-02 12:02:00,33.6,17.4,30.07,NW,314,4.0,14.0,51,0.00,,SCT042,0.00,VWS V14.01,2013-01-02 17:02:00,
2013-01-02 12:07:00,34.0,17.8,30.07,West,273,8.0,14.0,51,0.00,,SCT042,0.00,VWS V14.01,2013-01-02 17:07:00,
2013-01-02 12:12:00,34.2,17.5,30.07,North,355,7.0,14.0,50,0.00,,SCT042,0.00,VWS V14.01,2013-01-02 17:12:00,
2013-01-02 12:17:00,34.2,17.5,30.07,NW,320,11.0,15.0,50,0.00,,SCT042,0.00,VWS V14.01,2013-01-02 17:17:00,
2013-01-02 12:22:00,34.4,17.7,30.07,SW,220,5.0,15.0,50,0.00,,SCT042,0.00,VWS V14.01,2013-01-02 17:22:00,
2013-01-02 12:27:00,34.6,18.3,30.07,West,277,5.0,18.0,51,0.00,,SCT042,0.00,VWS V14.01,2013-01-02 17:27:00,
2013-01-02 12:32:00,35.3,18.1,30.07,NW,304,5.0,10.0,49,0.00,,SCT042,0.00,VWS V14.01,2013-01-02 17:32:00,
2013-01-02 12:37:00,35.1,17.9,30.06,NNW,342,2.0,13.0,49,0.00,,SCT042,0.00,VWS V14.01,2013-01-02 17:37:00,
2013-01-02 12:42:00,34.8,17.6,30.06,NW,316,10.0,16.0,49,0.00,,SCT042,0.00,VWS V14.01,2013-01-02 17:42:00,
2013-01-02 12:47:00,34.7,18.0,30.06,NW,315,6.0,16.0,50,0.00,,SCT042,0.00,VWS V14.01,2013-01-02 17:47:00,
2013-01-02 12:52:00,35.1,18.4,30.06,WSW,258,6.0,16.0,50,0.00,,SCT042,0.00,VWS V14.01,2013-01-02 17:52:00,
2013-01-02 12:57:00,35.2,18.0,30.07,West,279,3.0,16.0,49,0.00,,SCT042,0.00,VWS V14.01,2013-01-02 17:57:00,
2013-01-02 13:02:00,35.2,18.9,30.07,WNW,292,5.0,9.0,51,0.00,,SCT044,0.00,VWS V14.01,2013-01-02 18:02:00,
2013-01-02 13:08:00,34.6,17.9,30.08,NW,311,5.0,10.0,50,0.00,,SCT044,0.00,VWS V14.01,2013-01-02 18:08:00,
2013-01-02 13:13:00,33.9,17.7,30.07,WSW,252,2.0,11.0,51,0.00,,SCT044,0.00,VWS V14.01,2013-01-02 18:13:00,
2013-01-02 13:18:00,33.7,18.0,30.07,NW,317,9.0,11.0,52,0.00,,SCT044,0.00,VWS V14.01,2013-01-02 18:18:00,
2013-01-02 13:23:00,34.5,18.2,30.07,NW,321,13.0,13.0,51,0.00,,SCT044,0.00,VWS V14.01,2013-01-02 18:23:00,
2013-01-02 13:28:00,35.3,18.5,30.07,NNW,337,6.0,13.0,50,0.00,,SCT044,0.00,VWS V14.01,2013-01-02 18:28:00,
2013-01-02 13:33:00,36.1,18.8,30.07,NNW,340,11.0,13.0,49,0.00,,SCT044,0.00,VWS V14.01,2013-01-02 18:33:00,
2013-01-02 13:38:00,36.5,18.7,30.07,WNW,285,7.0,13.0,48,0.00,,SCT044,0.00,VWS V14.01,2013-01-02 18:38:00,
2013-01-02 13:43:00,36.0,18.2,30.07,NW,325,2.0,13.0,48,0.00,,SCT044,0.00,VWS V14.01,2013-01-02 18:43:00,
2013-01-02 13:48:00,36.1,18.3,30.07,WSW,253,3.0,13.0,48,0.00,,SCT044,0.00,VWS V14.01,2013-01-02 18:48:00,
2013-01-02 13:53:00,36.3,19.0,30.07,NW,322,8.0,15.0,49,0.00,,SCT044,0.00,VWS V14.01,2013-01-02 18:53:00,
2013-01-02 13:58:00,36.6,19.3,30.07,WNW,288,11.0,15.0,49,0.00,,SCT044,0.00,VWS V14.01,2013-01-02 18:58:00,
2013-01-02 14:03:00,37.1,19.2,30.08,WNW,289,6.0,9.0,48,0.00,,FEW046,0.00,VWS V14.01,2013-01-02 19:03:00,
2013-01-02 14:08:00,36.6,18.8,30.07,NNW,327,10.0,13.0,48,0.00,,FEW046,0.00,VWS V14.01,2013-01-02 19:08:00,
2013-01-02 14:13:00,36.4,18.6,30.08,WSW,238,7.0,13.0,48,0.00,,FEW046,0.00,VWS V14.01,2013-01-02 19:13:00,
2013-01-02 14:18:00,36.2,18.9,30.08,WNW,301,4.0,13.0,49,0.00,,FEW046,0.00,VWS V14.01,2013-01-02 19:18:00,
2013-01-02 14:23:00,36.2,18.4,30.07,West,281,4.0,13.0,48,0.00,,FEW046,0.00,VWS V14.01,2013-01-02 19:23:00,
2013-01-02 14:28:00,36.4,18.1,30.07,West,273,3.0,13.0,47,0.00,,FEW046,0.00,VWS V14.01,2013-01-02 19:28:00,
2013-01-02 14:33:00,36.3,18.5,30.08,NNW,329,6.0,10.0,48,0.00,,FEW046,0.00,VWS V14.01,2013-01-02 19:33:00,
2013-01-02 14:38:00,36.2,17.9,30.08,West,263,6.0,13.0,47,0.00,,FEW046,0.00,VWS V14.01,2013-01-02 19:38:00,
2013-01-02 14:43:00,36.0,18.2,30.08,WNW,293,9.0,13.0,48,0.00,,FEW046,0.00,VWS V14.01,2013-01-02 19:43:00,
2013-01-02 14:48:00,36.1,18.3,30.08,WNW,293,4.0,13.0,48,0.00,,FEW046,0.00,VWS V14.01,2013-01-02 19:48:00,
2013-01-02 14:53:00,36.1,18.3,30.08,WNW,300,7.0,13.0,48,0.00,,FEW046,0.00,VWS V14.01,2013-01-02 19:53:00,
2013-01-02 14:58:00,36.1,17.8,30.08,West,281,8.0,13.0,47,0.00,,FEW046,0.00,VWS V14.01,2013-01-02 19:58:00,
2013-01-02 15:03:00,36.1,17.8,30.09,West,276,6.0,13.0,47,0.00,,CLR,0.00,VWS V14.01,2013-01-02 20:03:00,
2013-01-02 15:08:00,36.1,17.8,30.08,WNW,293,6.0,13.0,47,0.00,,CLR,0.00,VWS V14.01,2013-01-02 20:08:00,
2013-01-02 15:13:00,35.9,18.1,30.08,WNW,302,3.0,13.0,48,0.00,,CLR,0.00,VWS V14.01,2013-01-02 20:13:00,
2013-01-02 15:18:00,36.2,17.9,30.09,West,277,4.0,13.0,47,0.00,,CLR,0.00,VWS V14.01,2013-01-02 20:18:00,
2013-01-02 15:23:00,36.2,17.9,30.09,NW,304,1.0,13.0,47,0.00,,CLR,0.00,VWS V14.01,2013-01-02 20:23:00,
2013-01-02 15:28:00,36.4,18.1,30.09,NW,307,4.0,13.0,47,0.00,,CLR,0.00,VWS V14.01,2013-01-02 20:28:00,
2013-01-02 15:33:00,36.2,17.9,30.09,WNW,296,2.0,9.0,47,0.00,,CLR,0.00,VWS V14.01,2013-01-02 20:33:00,
2013-01-02 15:38:00,35.7,18.0,30.09,NNW,343,5.0,9.0,48,0.00,,CLR,0.00,VWS V14.01,2013-01-02 20:38:00,
2013-01-02 15:43:00,35.2,18.0,30.09,NNW,333,2.0,9.0,49,0.00,,CLR,0.00,VWS V14.01,2013-01-02 20:43:00,
2013-01-02 15:48:00,34.8,17.6,30.10,NNW,327,9.0,11.0,49,0.00,,CLR,0.00,VWS V14.01,2013-01-02 20:48:00,
2013-01-02 15:53:00,34.4,17.2,30.10,NW,323,3.0,12.0,49,0.00,,CLR,0.00,VWS V14.01,2013-01-02 20:53:00,
2013-01-02 15:58:00,34.2,17.5,30.10,WNW,288,4.0,12.0,50,0.00,,CLR,0.00,VWS V14.01,2013-01-02 20:58:00,
2013-01-02 16:03:00,34.1,17.4,30.10,NNW,334,1.0,9.0,50,0.00,,CLR,0.00,VWS V14.01,2013-01-02 21:03:00,
2013-01-02 16:08:00,33.8,17.6,30.10,WSW,250,2.0,9.0,51,0.00,,CLR,0.00,VWS V14.01,2013-01-02 21:08:00,
2013-01-02 16:13:00,33.6,17.9,30.10,West,279,2.0,9.0,52,0.00,,CLR,0.00,VWS V14.01,2013-01-02 21:13:00,
2013-01-02 16:18:00,33.5,17.8,30.10,NW,319,3.0,9.0,52,0.00,,CLR,0.00,VWS V14.01,2013-01-02 21:18:00,
2013-01-02 16:23:00,33.2,17.9,30.10,North,355,3.0,9.0,53,0.00,,CLR,0.00,VWS V14.01,2013-01-02 21:23:00,
2013-01-02 16:28:00,32.9,18.1,30.10,NW,316,1.0,9.0,54,0.00,,CLR,0.00,VWS V14.01,2013-01-02 21:28:00,
2013-01-02 16:33:00,32.7,17.5,30.11,NW,311,3.0,8.0,53,0.00,,CLR,0.00,VWS V14.01,2013-01-02 21:33:00,
2013-01-02 16:38:00,32.5,17.7,30.11,WNW,288,1.0,8.0,54,0.00,,CLR,0.00,VWS V14.01,2013-01-02 21:38:00,
2013-01-02 16:43:00,32.2,17.4,30.11,WNW,283,3.0,8.0,54,0.00,,CLR,0.00,VWS V14.01,2013-01-02 21:43:00,
2013-01-02 16:48:00,32.0,17.7,30.11,West,271,1.0,8.0,55,0.00,,CLR,0.00,VWS V14.01,2013-01-02 21:48:00,
2013-01-02 16:53:00,31.8,17.5,30.11,NW,315,1.0,8.0,55,0.00,,CLR,0.00,VWS V14.01,2013-01-02 21:53:00,
2013-01-02 16:58:00,31.5,17.6,30.12,NW,304,1.0,8.0,56,0.00,,CLR,0.00,VWS V14.01,2013-01-02 21:58:00,
2013-01-02 17:03:00,31.2,17.3,30.12,WSW,242,2.0,2.0,56,0.00,,CLR,0.00,VWS V14.01,2013-01-02 22:03:00,
2013-01-02 17:08:00,30.8,17.0,30.12,WSW,239,1.0,3.0,56,0.00,,CLR,0.00,VWS V14.01,2013-01-02 22:08:00,
2013-01-02 17:13:00,30.5,17.5,30.13,WSW,253,0.0,3.0,58,0.00,,CLR,0.00,VWS V14.01,2013-01-02 22:13:00,
2013-01-02 17:18:00,30.3,17.7,30.13,WSW,246,0.0,3.0,59,0.00,,CLR,0.00,VWS V14.01,2013-01-02 22:18:00,
2013-01-02 17:23:00,30.1,17.5,30.13,WSW,238,1.0,3.0,59,0.00,,CLR,0.00,VWS V14.01,2013-01-02 22:23:00,
2013-01-02 17:28:00,30.0,17.4,30.14,West,274,0.0,3.0,59,0.00,,CLR,0.00,VWS V14.01,2013-01-02 22:28:00,
2013-01-02 17:33:00,30.0,17.8,30.14,WNW,302,1.0,3.0,60,0.00,,CLR,0.00,VWS V14.01,2013-01-02 22:33:00,
2013-01-02 17:38:00,29.9,17.3,30.14,NW,316,0.0,3.0,59,0.00,,CLR,0.00,VWS V14.01,2013-01-02 22:38:00,
2013-01-02 17:43:00,29.7,17.5,30.13,WSW,250,2.0,3.0,60,0.00,,CLR,0.00,VWS V14.01,2013-01-02 22:43:00,
2013-01-02 17:48:00,29.6,17.4,30.14,WNW,294,2.0,4.0,60,0.00,,CLR,0.00,VWS V14.01,2013-01-02 22:48:00,
2013-01-02 17:53:00,29.7,17.5,30.14,NW,311,2.0,4.0,60,0.00,,CLR,0.00,VWS V14.01,2013-01-02 22:53:00,
2013-01-02 17:58:00,29.6,17.4,30.14,NW,312,2.0,4.0,60,0.00,,CLR,0.00,VWS V14.01,2013-01-02 22:58:00,
2013-01-02 18:03:00,29.5,17.3,30.14,WNW,289,1.0,2.0,60,0.00,,CLR,0.00,VWS V14.01,2013-01-02 23:03:00,
2013-01-02 18:08:00,29.3,17.5,30.14,WNW,289,1.0,2.0,61,0.00,,CLR,0.00,VWS V14.01,2013-01-02 23:08:00,
2013-01-02 18:13:00,29.2,17.4,30.14,WNW,289,0.0,2.0,61,0.00,,CLR,0.00,VWS V14.01,2013-01-02 23:13:00,
2013-01-02 18:18:00,29.1,17.3,30.15,WSW,239,2.0,3.0,61,0.00,,CLR,0.00,VWS V14.01,2013-01-02 23:18:00,
2013-01-02 18:23:00,29.0,17.6,30.15,West,275,1.0,3.0,62,0.00,,CLR,0.00,VWS V14.01,2013-01-02 23:23:00,
2013-01-02 18:28:00,29.0,17.6,30.15,WSW,254,1.0,4.0,62,0.00,,CLR,0.00,VWS V14.01,2013-01-02 23:28:00,
2013-01-02 18:33:00,28.9,17.5,30.16,WSW,254,0.0,1.0,62,0.00,,CLR,0.00,VWS V14.01,2013-01-02 23:33:00,
2013-01-02 18:38:00,28.8,17.4,30.15,West,259,0.0,1.0,62,0.00,,CLR,0.00,VWS V14.01,2013-01-02 23:38:00,
2013-01-02 18:43:00,28.8,17.4,30.15,WNW,301,2.0,4.0,62,0.00,,CLR,0.00,VWS V14.01,2013-01-02 23:43:00,
2013-01-02 18:48:00,28.7,17.3,30.15,WNW,303,1.0,4.0,62,0.00,,CLR,0.00,VWS V14.01,2013-01-02 23:48:00,
2013-01-02 18:53:00,28.6,17.2,30.15,WSW,258,0.0,4.0,62,0.00,,CLR,0.00,VWS V14.01,2013-01-02 23:53:00,
2013-01-02 18:58:00,28.5,17.5,30.15,WSW,258,1.0,4.0,63,0.00,,CLR,0.00,VWS V14.01,2013-01-02 23:58:00,
2013-01-02 19:03:00,28.4,17.4,30.16,WSW,258,1.0,2.0,63,0.00,,CLR,0.00,VWS V14.01,2013-01-03 00:03:00,
2013-01-02 19:08:00,28.3,17.3,30.16,WNW,302,1.0,3.0,63,0.00,,CLR,0.00,VWS V14.01,2013-01-03 00:08:00,
2013-01-02 19:13:00,28.2,16.9,30.16,WNW,292,0.0,3.0,62,0.00,,CLR,0.00,VWS V14.01,2013-01-03 00:13:00,
2013-01-02 19:18:00,28.2,17.2,30.16,WNW,298,0.0,3.0,63,0.00,,CLR,0.00,VWS V14.01,2013-01-03 00:18:00,
2013-01-02 19:23:00,28.1,17.1,30.16,West,267,2.0,3.0,63,0.00,,CLR,0.00,VWS V14.01,2013-01-03 00:23:00,
2013-01-02 19:28:00,28.2,18.0,30.17,WNW,297,0.0,3.0,65,0.00,,CLR,0.00,VWS V14.01,2013-01-03 00:28:00,
2013-01-02 19:34:00,28.1,17.9,30.16,WNW,297,0.0,2.0,65,0.00,,CLR,0.00,VWS V14.01,2013-01-03 00:34:00,
2013-01-02 19:39:00,28.0,17.8,30.16,NW,308,1.0,3.0,65,0.00,,CLR,0.00,VWS V14.01,2013-01-03 00:39:00,
2013-01-02 19:44:00,27.9,17.3,30.16,NW,307,0.0,3.0,64,0.00,,CLR,0.00,VWS V14.01,2013-01-03 00:44:00,
2013-01-02 19:49:00,27.9,17.3,30.16,West,271,1.0,3.0,64,0.00,,CLR,0.00,VWS V14.01,2013-01-03 00:49:00,
2013-01-02 19:54:00,27.9,17.3,30.16,WNW,300,3.0,4.0,64,0.00,,CLR,0.00,VWS V14.01,2013-01-03 00:54:00,
2013-01-02 19:59:00,28.0,17.4,30.17,WNW,288,0.0,4.0,64,0.00,,CLR,0.00,VWS V14.01,2013-01-03 00:59:00,
2013-01-02 20:04:00,28.0,17.8,30.16,WNW,286,2.0,3.0,65,0.00,,CLR,0.00,VWS V14.01,2013-01-03 01:04:00,
2013-01-02 20:09:00,27.9,17.7,30.16,WNW,284,1.0,3.0,65,0.00,,CLR,0.00,VWS V14.01,2013-01-03 01:09:00,
2013-01-02 20:14:00,27.9,17.7,30.16,WNW,297,1.0,4.0,65,0.00,,CLR,0.00,VWS V14.01,2013-01-03 01:14:00,
2013-01-02 20:19:00,27.8,17.2,30.16,NW,310,1.0,4.0,64,0.00,,CLR,0.00,VWS V14.01,2013-01-03 01:19:00,
2013-01-02 20:24:00,27.8,17.2,30.16,WNW,298,2.0,4.0,64,0.00,,CLR,0.00,VWS V14.01,2013-01-03 01:24:00,
2013-01-02 20:29:00,27.6,17.4,30.16,NW,308,1.0,4.0,65,0.00,,CLR,0.00,VWS V14.01,2013-01-03 01:29:00,
2013-01-02 20:34:00,27.5,17.3,30.17,WNW,297,1.0,3.0,65,0.00,,CLR,0.00,VWS V14.01,2013-01-03 01:34:00,
2013-01-02 20:39:00,27.5,17.6,30.17,NW,311,2.0,3.0,66,0.00,,CLR,0.00,VWS V14.01,2013-01-03 01:39:00,
2013-01-02 20:44:00,27.4,17.5,30.17,West,265,2.0,3.0,66,0.00,,CLR,0.00,VWS V14.01,2013-01-03 01:44:00,
2013-01-02 20:49:00,27.4,17.5,30.17,WNW,290,0.0,3.0,66,0.00,,CLR,0.00,VWS V14.01,2013-01-03 01:49:00,
2013-01-02 20:54:00,27.3,17.5,30.17,NW,315,2.0,5.0,66,0.00,,CLR,0.00,VWS V14.01,2013-01-03 01:54:00,
2013-01-02 20:59:00,27.3,17.5,30.17,WSW,258,2.0,5.0,66,0.00,,CLR,0.00,VWS V14.01,2013-01-03 01:59:00,
2013-01-02 21:04:00,27.3,17.8,30.17,West,271,0.0,3.0,67,0.00,,CLR,0.00,VWS V14.01,2013-01-03 02:04:00,
2013-01-02 21:09:00,27.4,17.5,30.17,NW,313,0.0,3.0,66,0.00,,CLR,0.00,VWS V14.01,2013-01-03 02:09:00,
2013-01-02 21:14:00,27.3,17.5,30.17,West,273,2.0,3.0,66,0.00,,CLR,0.00,VWS V14.01,2013-01-03 02:14:00,
2013-01-02 21:19:00,27.3,17.5,30.17,WNW,292,1.0,3.0,66,0.00,,CLR,0.00,VWS V14.01,2013-01-03 02:19:00,
2013-01-02 21:24:00,27.3,17.5,30.17,WNW,302,0.0,4.0,66,0.00,,CLR,0.00,VWS V14.01,2013-01-03 02:24:00,
2013-01-02 21:29:00,27.3,17.5,30.17,NW,326,0.0,4.0,66,0.00,,CLR,0.00,VWS V14.01,2013-01-03 02:29:00,
2013-01-02 21:34:00,27.2,17.4,30.18,WNW,300,1.0,4.0,66,0.00,,CLR,0.00,VWS V14.01,2013-01-03 02:34:00,
2013-01-02 21:39:00,27.2,17.4,30.18,WNW,302,4.0,4.0,66,0.00,,CLR,0.00,VWS V14.01,2013-01-03 02:39:00,
2013-01-02 21:44:00,27.2,17.4,30.18,NW,305,2.0,4.0,66,0.00,,CLR,0.00,VWS V14.01,2013-01-03 02:44:00,
2013-01-02 21:49:00,27.2,17.4,30.18,NW,305,1.0,4.0,66,0.00,,CLR,0.00,VWS V14.01,2013-01-03 02:49:00,
2013-01-02 21:54:00,27.2,17.4,30.18,WNW,298,3.0,4.0,66,0.00,,CLR,0.00,VWS V14.01,2013-01-03 02:54:00,
2013-01-02 21:59:00,27.2,17.4,30.18,West,275,1.0,4.0,66,0.00,,CLR,0.00,VWS V14.01,2013-01-03 02:59:00,
2013-01-02 22:04:00,27.1,17.3,30.18,WSW,252,0.0,3.0,66,0.00,,CLR,0.00,VWS V14.01,2013-01-03 03:04:00,
2013-01-02 22:09:00,27.1,17.6,30.19,WSW,252,0.0,3.0,67,0.00,,CLR,0.00,VWS V14.01,2013-01-03 03:09:00,
2013-01-02 22:14:00,27.1,18.0,30.19,WSW,252,0.0,3.0,68,0.00,,CLR,0.00,VWS V14.01,2013-01-03 03:14:00,
2013-01-02 22:19:00,27.1,18.0,30.19,West,279,2.0,3.0,68,0.00,,CLR,0.00,VWS V14.01,2013-01-03 03:19:00,
2013-01-02 22:24:00,27.0,17.5,30.19,WNW,283,0.0,3.0,67,0.00,,CLR,0.00,VWS V14.01,2013-01-03 03:24:00,
2013-01-02 22:29:00,27.0,17.5,30.19,WNW,283,0.0,3.0,67,0.00,,CLR,0.00,VWS V14.01,2013-01-03 03:29:00,
2013-01-02 22:35:00,26.9,17.4,30.19,NNW,340,0.0,2.0,67,0.00,,CLR,0.00,VWS V14.01,2013-01-03 03:35:00,
2013-01-02 22:40:00,26.8,17.3,30.20,WNW,294,0.0,3.0,67,0.00,,CLR,0.00,VWS V14.01,2013-01-03 03:40:00,
2013-01-02 22:45:00,26.7,17.2,30.20,WNW,294,1.0,3.0,67,0.00,,CLR,0.00,VWS V14.01,2013-01-03 03:45:00,
2013-01-02 22:50:00,26.6,17.1,30.20,WNW,294,0.0,3.0,67,0.00,,CLR,0.00,VWS V14.01,2013-01-03 03:50:00,
2013-01-02 22:55:00,26.5,17.0,30.20,WNW,294,0.0,3.0,67,0.00,,CLR,0.00,VWS V14.01,2013-01-03 03:55:00,
2013-01-02 23:00:00,26.4,17.3,30.20,WNW,294,0.0,1.0,68,0.00,,CLR,0.00,VWS V14.01,2013-01-03 04:00:00,
2013-01-02 23:05:00,26.2,17.1,30.20,WNW,294,1.0,2.0,68,0.00,,CLR,0.00,VWS V14.01,2013-01-03 04:05:00,
2013-01-02 23:10:00,26.1,17.3,30.20,WNW,296,0.0,4.0,69,0.00,,CLR,0.00,VWS V14.01,2013-01-03 04:10:00,
2013-01-02 23:15:00,26.1,17.3,30.20,WNW,296,0.0,4.0,69,0.00,,CLR,0.00,VWS V14.01,2013-01-03 04:15:00,
2013-01-02 23:20:00,26.0,16.9,30.21,NW,306,0.0,4.0,68,0.00,,CLR,0.00,VWS V14.01,2013-01-03 04:20:00,
2013-01-02 23:26:00,26.0,17.2,30.21,NW,306,0.0,4.0,69,0.00,,CLR,0.00,VWS V14.01,2013-01-03 04:26:00,
2013-01-02 23:30:00,26.1,17.0,30.21,NW,306,1.0,2.0,68,0.00,,CLR,0.00,VWS V14.01,2013-01-03 04:30:00,
2013-01-02 23:36:00,26.2,17.4,30.21,WNW,287,0.0,3.0,69,0.00,,CLR,0.00,VWS V14.01,2013-01-03 04:36:00,
2013-01-02 23:41:00,26.3,17.2,30.21,West,281,1.0,5.0,68,0.00,,CLR,0.00,VWS V14.01,2013-01-03 04:41:00,
2013-01-02 23:46:00,26.4,17.3,30.21,NNW,327,1.0,5.0,68,0.00,,CLR,0.00,VWS V14.01,2013-01-03 04:46:00,
2013-01-02 23:51:00,26.5,17.0,30.20,WNW,297,0.0,5.0,67,0.00,,CLR,0.00,VWS V14.01,2013-01-03 04:51:00,
2013-01-02 23:56:00,26.7,17.2,30.21,NW,325,4.0,5.0,67,0.00,,CLR,0.00,VWS V14.01,2013-01-03 04:56:00,